View from above orbital plane
|
View from above satellite
|
Ground track
|
The orbit data is extracted from the following two-line orbital elements,
1 39763U 14028C 21026.21450186 .00000009 00000-0 -70344-5 0 9994
2 39763 82.4463 261.5472 0021345 40.8311 319.4371 12.42891347303113
Epoch (UTC): | 26 January 2021 05:08:52 |
Eccentricity: | 0.0021345 |
inclination: | 82.4463° |
perigee height: | 1477 km |
apogee height: | 1511 km |
right ascension of ascending node: | 261.5472° |
argument of perigee: | 40.8311° |
revolutions per day: | 12.42891347 |
mean anomaly at epoch: | 319.4371° |
orbit number at epoch: | 30311 |
The dashed part of the orbit path shows where the satellite is in the earth's shadow,
|
|